World > North America > United States > Texas > Edom

Hourly Edom, TX Regional Weather

Feedback E-mail the Weather

Quick WX

Edom, TX Weather Maps

°F °C°F °C
Edom Weather Map
UTC Time: 8/19/2022, 11:15
Your Time:

Edom, TX Regional Weather

Expires:202208191200;;309014
ASUS44 KFWD 191115
RWRTX 
NORTH TEXAS HOURLY WEATHER ROUNDUP
NATIONAL WEATHER SERVICE FORT WORTH TX
600 AM CDT FRI AUG 19 2022

NOTE: "FAIR" INDICATES FEW OR NO CLOUDS BELOW 12,000 FEET WITH NO
SIGNIFICANT WEATHER AND/OR OBSTRUCTIONS TO VISIBILITY.


TXZ095>097-106>112-122>126-135>138-148>153-164>167-191200-
EAST TEXAS
  
CITY           SKY/WX    TMP DP  RH WIND       PRES   REMARKS
PARIS          FAIR      70  69  97 NE3       29.96S                  
SULPHUR SPRNGS FAIR      71  71 100 CALM      29.97F FOG              
MOUNT PLEASANT FAIR      70  70 100 CALM      29.95S FOG              
GILMER         MOCLDY    71  69  93 CALM      29.95S                  
MINEOLA          N/A     70  70 100 CALM      29.95R                  
TYLER          CLOUDY    74  72  93 E3        29.95R                  
LONGVIEW       CLOUDY    75  72  90 CALM      29.93S                  
MARSHALL       CLOUDY    73  71  94 CALM      29.96S                  
ATHENS         CLOUDY    73  70  88 CALM      29.94R                  
PALESTINE      CLOUDY    73  73 100 CALM      29.93F                  
JACKSONVILLE   CLOUDY    72  71  96 CALM      29.97S                  
HENDERSON      CLOUDY    77  69  75 CALM      29.96R                  
CENTER         CLOUDY    75  72  88 S3        29.95S                  
NACOGDOCHES    CLOUDY    73  73 100 CALM      29.95S                  
LUFKIN           N/A     74  73  97 N3        29.94S FOG              
$$

SUPPLEMENTAL OBSERVATIONS (NWS FORT WORTH AREA)
  
CITY           SKY/WX    TMP DP  RH WIND       PRES   REMARKS
CADDO GRASSLND   N/A     68  66  94 CALM        N/A                   
GRANBURY         N/A     73  70  88 CALM        N/A                   
COMANCHE         N/A     73  66  78 SW5         N/A                   
MCGREGOR         N/A     75  70  83 N1          N/A                   
TEMPLE           N/A     73  70  88 W2          N/A                   
LAKE LIMESTONE   N/A     73  68  83 SE1         N/A                   
$$

SUPPLEMENTAL OBSERVATIONS (NWS NORMAN AREA)
  
CITY           SKY/WX    TMP DP  RH WIND       PRES   REMARKS
GOODLETT         N/A     67  62  83 NE3       29.98                   
ODELL            N/A     67  67  98 E8        29.98F                  
CROWELL          N/A     68  65  89 NE5       29.99S                  
KNOX CITY        N/A     68  67  96 CALM      29.98                   
SEYMOUR          N/A     67  67  98 CALM      29.97S                  
MILLERS CREEK    N/A     70  66  88 S3          N/A                   
$$

SUPPLEMENTAL OBSERVATIONS (NWS SAN ANGELO AREA)
  
CITY           SKY/WX    TMP DP  RH WIND       PRES   REMARKS
WEINERT          N/A     70  65  84 CALM      29.98S                  
HASKELL          N/A     69  63  81 CALM      29.97                   
THROCKMORTON     N/A     67  67  97 CALM      29.97                   
STAMFORD         N/A     66  57  73 CALM      29.99                   
CLYDE            N/A     67  62  82 CALM      30.03R                  
HAMBY            N/A     64  57  77 SE3         N/A                   
IVIE RESERVOIR   N/A     73  66  78 E1          N/A                   
COLORADO BEND    N/A     73  70  88 SW2         N/A                   
$$

SUPPLEMENTAL OBSERVATIONS (NWS SHREVEPORT AREA)
  
CITY           SKY/WX    TMP DP  RH WIND       PRES   REMARKS
TEXARKANA        N/A     70  68  94 CALM        N/A                   
LINDEN           N/A     72  70  94 N1          N/A                   
CADDO LAKE       N/A     72  70  94 CALM        N/A                   
LUFKIN           N/A     73  72  94 MISG        N/A                   
N SABINE NF      N/A     73  70  88 MISG        N/A                   
$$

SUPPLEMENTAL OBSERVATIONS ARE A COLLECTION OF AUTOMATED INSTRUMENTS
THAT ARE MAINTAINED BY A VARIETY OF FEDERAL AND STATE AGENCIES. 
CERTAIN ELEMENTS...SUCH AS HUMIDITY VALUES AND SUSTAINED WIND 
SPEEDS...MAY BE APPROXIMATED.

  

SKY/WX - Weather  TMP - Temperature  DP - Dew Point  RH - Humidity
WIND - Wind Direction/Speed PRES - Barometric Pressure VSB - Visibility
WCI - Wind Chill Index E13G22 Wind - East Wind 13 mph/Gusts of 22 mph

Trending Headlines

Edom Radar Loop



Edom Quick Facts


National Two Day Weather Forecast


E-mail the Edom Weather Forecast

Voice your opinion or tell us about page issues...